This is the latest recevied weather packets stored in our database for station/object KB1RMA-13. If no packets are shown the sender has not sent any weather packets the latest 10 day(s).
| Time | Temp. | Humidity | Pressure | Rain* | Wind** | Luminosity | Snow |
|---|---|---|---|---|---|---|---|
| 1777321598 | 14.44° C | 58% | 1024.2 hPa | 0 mm | - | 488 W/m² | - |
| 1777321295 | 13.89° C | 57% | 1024.2 hPa | 0 mm | - | 506 W/m² | - |
| 1777320992 | 13.89° C | 59% | 1024.1 hPa | 0 mm | - | 524 W/m² | - |
| 1777320690 | 14.44° C | 56% | 1024.1 hPa | 0 mm | - | 60 W/m² | - |
| 1777320387 | 14.44° C | 55% | 1024.1 hPa | 0 mm | - | 556 W/m² | - |
| 1777320083 | 14.44° C | 55% | 1024.4 hPa | 0 mm | - | 572 W/m² | - |
| 1777319780 | 14.44° C | 58% | 1024.1 hPa | 0 mm | - | 591 W/m² | - |
| 1777319477 | 14.44° C | 56% | 1024.4 hPa | 0 mm | - | 63 W/m² | - |
| 1777319174 | 14.44° C | 55% | 1024.3 hPa | 0 mm | - | 61 W/m² | - |
| 1777318872 | 14.44° C | 53% | 1024.4 hPa | 0 mm | - | 632 W/m² | - |
| 1777318569 | 14.44° C | 55% | 1024.5 hPa | 0 mm | - | 649 W/m² | - |
| 1777318265 | 14.44° C | 56% | 1024.5 hPa | 0 mm | - | 61 W/m² | - |
| 1777317961 | 14.44° C | 55% | 1024.5 hPa | 0 mm | - | 682 W/m² | - |
| 1777317658 | 14.44° C | 54% | 1024.7 hPa | 0 mm | - | 62 W/m² | - |
| 1777317356 | 14.44° C | 53% | 1024.8 hPa | 0 mm | - | 706 W/m² | - |
| 1777317050 | 14.44° C | 53% | 1024.8 hPa | 0 mm | - | 722 W/m² | - |
| 1777316749 | 15° C | 54% | 1024.8 hPa | 0 mm | - | 732 W/m² | - |
| 1777316444 | 14.44° C | 54% | 1025 hPa | 0 mm | - | 62 W/m² | - |
| 1777316142 | 14.44° C | 56% | 1024.9 hPa | 0 mm | - | 757 W/m² | - |
| 1777315840 | 14.44° C | 54% | 1024.9 hPa | 0 mm | - | 62 W/m² | - |
| 1777315539 | 14.44° C | 55% | 1025 hPa | 0 mm | - | 63 W/m² | - |
| 1777315236 | 14.44° C | 55% | 1024.9 hPa | 0 mm | - | 64 W/m² | - |
| 1777314933 | 14.44° C | 54% | 1024.9 hPa | 0 mm | - | 63 W/m² | - |
| 1777314628 | 14.44° C | 55% | 1025.1 hPa | 0 mm | - | 97 W/m² | - |
| 1777314326 | 14.44° C | 54% | 1025.2 hPa | 0 mm | - | 64 W/m² | - |
* Rain latest hour (hover to see other rain measurements)
** Current wind speed in m/s (hover to see current wind gust speed)